Weather History for Marshall, MI

Change the Weather History Date:

Tuesday, March 4, 2014

  Actual Average (KBTL) Record (KBTL)
Temperature  
Mean Temperature 7 °F 31 °F  
Max Temperature 18 °F 41 °F 48 °F (1997)
Min Temperature -4 °F 21 °F 0 °F (2002)
Degree Days  
Heating Degree Days 58 34  
Month to date heating degree days 138  
Since 1 July heating degree days 5103  
Cooling Degree Days 0 0  
Month to date cooling degree days 0  
Year to date cooling degree days 0  
Moisture  
Dew Point -3 °F    
Average Humidity 55    
Maximum Humidity 73    
Minimum Humidity 40    
Precipitation  
Precipitation 0.00 in 0.06 in 0.42 in (2004)
Month to date precipitation 0.23  
Year to date precipitation 3.23  
Sea Level Pressure  
Sea Level Pressure 30.25 in    
Wind  
Wind Speed 1 mph (SSW)    
Max Wind Speed 7 mph    
Max Gust Speed -    
Visibility 10 miles    
Events      
T = Trace of Precipitation, MM = Missing Value Source: NWS Daily Summary

Daily Weather History Graph

Daily Weather History Graph

Search for Another Location

Airport:

Trip Planner

Search our weather history database for the weather conditions in past years. The results will help you decide how hot, cold, wet, or windy it might be!

Date:

Astronomy

Mar. 04, 2014 Rise Set
Actual Time 7:10 AM EST 6:33 PM EST
Civil Twilight 6:42 AM EST 7:01 PM EST
Nautical Twilight 6:09 AM EST 7:33 PM EST
Astronomical Twilight 5:37 AM EST 8:06 PM EST
Moon 8:51 AM EST (3/4) 10:45 PM EST (3/4)
Length of Visible Light 12h 19m
Length of Day
11h 23m
Waxing Crescent, 14% of the Moon is Illuminated
Mar 4
Waxing Crescent
Mar 8
First Quarter
Mar 16
Full
Mar 23
Last Quarter
Mar 30
New

Hourly Weather History & Observations

Time (EST) Temp. Windchill Dew Point Humidity Pressure Visibility Wind Dir Wind Speed Gust Speed Precip Events Conditions
12:14 AM -4.7 °F - -12.8 °F 68% 30.35 in 10.0 mi Calm Calm - N/A   Clear
12:33 AM -4.0 °F - -11.4 °F 71% 30.35 in 10.0 mi Calm Calm - N/A   Clear
12:54 AM -3.3 °F - -10.8 °F 70% 30.35 in 10.0 mi Calm Calm - N/A   Scattered Clouds
1:14 AM -2.0 °F - -9.0 °F 72% 30.34 in 10.0 mi Calm Calm - N/A   Scattered Clouds
1:33 AM -1.7 °F - -8.5 °F 73% 30.34 in 10.0 mi Calm Calm - N/A   Scattered Clouds
1:54 AM -1.3 °F - -8.5 °F 72% 30.34 in 10.0 mi Calm Calm - N/A   Clear
2:14 AM -1.3 °F - -8.5 °F 72% 30.34 in 10.0 mi Calm Calm - N/A   Clear
2:34 AM 0.1 °F - -7.1 °F 72% 30.32 in 10.0 mi Calm Calm - N/A   Scattered Clouds
2:54 AM 2.5 °F - -6.9 °F 65% 30.31 in 10.0 mi Calm Calm - N/A   Scattered Clouds
3:14 AM 3.7 °F - -7.8 °F 59% 30.31 in 10.0 mi Calm Calm - N/A   Scattered Clouds
3:34 AM 3.9 °F - -7.6 °F 59% 30.31 in 10.0 mi Calm Calm - N/A   Overcast
3:54 AM 4.1 °F - -6.9 °F 60% 30.30 in 10.0 mi Calm Calm - N/A   Overcast
4:14 AM 4.5 °F - -6.7 °F 60% 30.30 in 10.0 mi Calm Calm - N/A   Overcast
4:34 AM 4.5 °F - -6.0 °F 62% 30.30 in 10.0 mi Calm Calm - N/A   Overcast
4:54 AM 4.8 °F -2.3 °F -6.0 °F 61% 30.30 in 10.0 mi South 3.5 mph - N/A   Overcast
5:14 AM 5.5 °F - -5.3 °F 61% 30.31 in 10.0 mi Calm Calm - N/A   Overcast
5:34 AM 5.9 °F -1.1 °F -5.1 °F 61% 30.30 in 10.0 mi South 3.5 mph - N/A   Mostly Cloudy
5:54 AM 5.9 °F - -4.9 °F 61% 30.31 in 10.0 mi Calm Calm - N/A   Mostly Cloudy
6:14 AM 6.3 °F -0.7 °F -4.5 °F 61% 30.30 in 10.0 mi South 3.5 mph - N/A   Overcast
6:34 AM 6.3 °F -0.7 °F -4.4 °F 62% 30.29 in 10.0 mi SSE 3.5 mph - N/A   Overcast
6:54 AM 6.3 °F -0.7 °F -4.0 °F 63% 30.27 in 10.0 mi SSE 3.5 mph - N/A   Overcast
7:13 AM 6.6 °F -2.2 °F -3.8 °F 62% 30.30 in 10.0 mi West 4.6 mph - N/A   Overcast
7:34 AM 6.8 °F - -3.5 °F 63% 30.29 in 10.0 mi Calm Calm - N/A   Overcast
7:54 AM 7.2 °F - -3.1 °F 63% 30.30 in 10.0 mi Calm Calm - N/A   Overcast
8:13 AM 7.3 °F - -3.8 °F 60% 30.30 in 10.0 mi Calm Calm - N/A   Overcast
8:34 AM 8.2 °F 1.6 °F -3.1 °F 60% 30.29 in 10.0 mi WSW 3.5 mph - N/A   Overcast
8:54 AM 8.4 °F - -3.3 °F 59% 30.29 in 10.0 mi Calm Calm - N/A   Overcast
9:13 AM 9.3 °F 2.8 °F -3.8 °F 55% 30.28 in 10.0 mi SSW 3.5 mph - N/A   Overcast
9:34 AM 10.0 °F 0.4 °F -3.5 °F 55% 30.28 in 10.0 mi SSW 5.8 mph - N/A   Overcast
9:54 AM 10.2 °F 2.0 °F -3.3 °F 55% 30.27 in 10.0 mi SSW 4.6 mph - N/A   Overcast
10:13 AM 10.9 °F 1.4 °F -3.5 °F 52% 30.26 in 10.0 mi SSW 5.8 mph - N/A   Overcast
10:34 AM 12.0 °F 2.7 °F -2.4 °F 53% 30.25 in 10.0 mi SSE 5.8 mph - N/A   Overcast
10:54 AM 11.7 °F 2.3 °F -4.0 °F 50% 30.25 in 10.0 mi South 5.8 mph - N/A   Overcast
11:13 AM 12.0 °F 5.9 °F -3.6 °F 50% 30.24 in 10.0 mi South 3.5 mph - N/A   Overcast
11:34 AM 12.0 °F 4.1 °F -2.9 °F 51% 30.24 in 10.0 mi SSE 4.6 mph - N/A   Overcast
11:54 AM 12.2 °F 1.7 °F -3.1 °F 50% 30.23 in 10.0 mi SE 6.9 mph - N/A   Overcast
12:13 PM 12.7 °F 2.4 °F -2.7 °F 50% 30.23 in 10.0 mi South 6.9 mph - N/A   Overcast
12:34 PM 13.8 °F 8.0 °F -2.6 °F 48% 30.22 in 10.0 mi SSE 3.5 mph - N/A   Overcast
12:54 PM 14.4 °F 6.9 °F -2.9 °F 46% 30.22 in 10.0 mi SSW 4.6 mph - N/A   Overcast
1:13 PM 14.9 °F - -2.4 °F 46% 30.21 in 10.0 mi Calm Calm - N/A   Overcast
1:34 PM 15.4 °F 9.8 °F -4.0 °F 42% 30.21 in 10.0 mi SSW 3.5 mph - N/A   Overcast
1:54 PM 16.2 °F 9.0 °F -4.0 °F 41% 30.20 in 10.0 mi WSW 4.6 mph - N/A   Overcast
2:13 PM 16.2 °F 7.6 °F -4.4 °F 40% 30.20 in 10.0 mi SSW 5.8 mph - N/A   Overcast
2:34 PM 16.7 °F 9.6 °F -3.5 °F 41% 30.19 in 10.0 mi SW 4.6 mph - N/A   Overcast
2:54 PM 17.1 °F 10.0 °F -2.2 °F 43% 30.19 in 10.0 mi West 4.6 mph - N/A   Overcast
3:14 PM 17.4 °F - -2.0 °F 42% 30.17 in 10.0 mi Calm Calm - N/A   Overcast
3:34 PM 18.3 °F 11.5 °F -1.8 °F 41% 30.16 in 10.0 mi WSW 4.6 mph - N/A   Overcast
3:54 PM 18.3 °F 11.5 °F -0.6 °F 44% 30.17 in 10.0 mi WSW 4.6 mph - N/A   Overcast
4:14 PM 18.3 °F 11.5 °F -0.6 °F 44% 30.16 in 10.0 mi West 4.6 mph - N/A   Overcast
4:34 PM 18.1 °F 11.3 °F -1.5 °F 42% 30.16 in 10.0 mi West 4.6 mph - N/A   Overcast
4:54 PM 18.1 °F - -1.5 °F 42% 30.16 in 10.0 mi Calm Calm - N/A   Overcast
5:14 PM 18.5 °F - 0.1 °F 45% 30.17 in 10.0 mi Calm Calm - N/A   Overcast
5:34 PM 18.5 °F - 0.1 °F 45% 30.17 in 10.0 mi Calm Calm - N/A   Overcast
5:54 PM 18.1 °F - -0.0 °F 45% 30.18 in 10.0 mi Calm Calm - N/A   Overcast
6:14 PM 18.1 °F - -0.8 °F 44% 30.16 in 10.0 mi Calm Calm - N/A   Overcast
6:34 PM 18.3 °F - 1.4 °F 48% 30.18 in 10.0 mi Calm Calm - N/A   Overcast
6:54 PM 18.0 °F - -0.2 °F 45% 30.18 in 10.0 mi Calm Calm - N/A   Overcast
7:14 PM 18.0 °F - 0.3 °F 46% 30.19 in 10.0 mi Calm Calm - N/A   Overcast
7:34 PM 18.0 °F - 1.8 °F 49% 30.19 in 10.0 mi Calm Calm - N/A   Overcast
7:54 PM 18.0 °F - 0.7 °F 47% 30.21 in 10.0 mi Calm Calm - N/A   Overcast
8:14 PM 17.8 °F - 1.4 °F 49% 30.21 in 10.0 mi Calm Calm - N/A   Overcast
8:34 PM 17.6 °F - 3.2 °F 53% 30.20 in 10.0 mi Calm Calm - N/A   Overcast
8:54 PM 17.6 °F - 2.8 °F 53% 30.21 in 10.0 mi Calm Calm - N/A   Overcast
9:14 PM 17.4 °F - 2.5 °F 52% 30.20 in 10.0 mi Calm Calm - N/A   Overcast
9:34 PM 17.2 °F - 3.4 °F 55% 30.21 in 10.0 mi Calm Calm - N/A   Overcast
9:54 PM 17.2 °F - 3.4 °F 55% 30.21 in 10.0 mi Calm Calm - N/A   Overcast
10:14 PM 17.1 °F - 4.3 °F 57% 30.21 in 10.0 mi Calm Calm - N/A   Overcast
10:34 PM 16.7 °F - 3.4 °F 56% 30.21 in 10.0 mi Calm Calm - N/A   Overcast
10:54 PM 16.9 °F - 4.8 °F 59% 30.21 in 10.0 mi Calm Calm - N/A   Overcast
11:14 PM 17.1 °F - 4.1 °F 57% 30.21 in 10.0 mi Calm Calm - N/A   Overcast
11:34 PM 17.2 °F - 4.8 °F 58% 30.23 in 10.0 mi Calm Calm - N/A   Overcast
11:53 PM 17.1 °F - 5.0 °F 59% 30.23 in 10.0 mi Calm Calm - N/A   Overcast